Weather History for Gillette, WY

Change the Weather History Date:

Tuesday, April 16, 2013

  Actual Average Record
Temperature  
Mean Temperature 22 °F 43 °F  
Max Temperature 26 °F 56 °F 81 °F (1926)
Min Temperature 18 °F 30 °F 13 °F (1951)
Degree Days  
Heating Degree Days 43 22  
Month to date heating degree days 489 392  
Since 1 July heating degree days 6576 6739  
Cooling Degree Days 0 0  
Month to date cooling degree days 0 0  
Year to date cooling degree days 0 0  
Moisture  
Dew Point 19 °F    
Average Humidity 89    
Maximum Humidity 96    
Minimum Humidity 81    
Precipitation  
Precipitation 0.16 in 0.05 in 0.94 in (1976)
Month to date precipitation 1.01 0.59  
Year to date precipitation 2.42 2.33  
Sea Level Pressure  
Sea Level Pressure 30.15 in    
Wind  
Wind Speed 7 mph (NNE)    
Max Wind Speed 16 mph    
Max Gust Speed 18 mph    
Visibility 4 miles    
Events Fog , Snow    
T = Trace of Precipitation, MM = Missing Value Source: NWS Daily Summary

Daily Weather History Graph

Daily Weather History Graph

Search for Another Location

Airport:

Trip Planner

Search our weather history database for the weather conditions in past years. The results will help you decide how hot, cold, wet, or windy it might be!

Date:

Astronomy

Apr. 16, 2013 Rise Set
Actual Time 6:16 AM MDT 7:48 PM MDT
Civil Twilight 5:45 AM MDT 8:18 PM MDT
Nautical Twilight 5:09 AM MDT 8:55 PM MDT
Astronomical Twilight 4:29 AM MDT 9:35 PM MDT
Moon 10:31 AM MDT (4/16) 12:53 AM MDT (4/16)
Length of Visible Light 14h 32m
Length of Day
13h 32m
Waxing Crescent, 34% of the Moon is Illuminated
Apr 16
Waxing Crescent
Apr 18
First Quarter
Apr 25
Full
May 2
Last Quarter
May 9
New

Hourly Weather History & Observations

Time (MDT) Temp. Windchill Dew Point Humidity Pressure Visibility Wind Dir Wind Speed Gust Speed Precip Events Conditions
12:53 AM 19.0 °F 12.3 °F 17.1 °F 92% 30.18 in 10.0 mi SSW 4.6 mph - N/A   Mostly Cloudy
1:38 AM 19.4 °F 14.3 °F 17.6 °F 93% 30.04 in 10.0 mi West 3.5 mph - N/A   Partly Cloudy
1:53 AM 19.0 °F - 17.1 °F 92% 30.18 in 10.0 mi Calm Calm - N/A   Partly Cloudy
2:53 AM 19.0 °F - 17.1 °F 92% 30.17 in 10.0 mi Calm Calm - N/A   Clear
3:53 AM 19.9 °F - 17.1 °F 89% 30.18 in 10.0 mi Calm Calm - N/A   Clear
4:53 AM 19.9 °F - 18.0 °F 92% 30.18 in 10.0 mi Calm Calm - N/A   Clear
5:49 AM 19.4 °F - 17.6 °F 93% 30.05 in 10.0 mi Calm Calm - N/A   Mostly Cloudy
5:53 AM 19.9 °F - 18.0 °F 92% 30.19 in 10.0 mi Calm Calm - N/A   Mostly Cloudy
6:53 AM 21.9 °F 17.2 °F 19.0 °F 89% 30.19 in 10.0 mi NE 3.5 mph - N/A   Overcast
7:53 AM 21.9 °F 13.4 °F 18.0 °F 85% 30.20 in 10.0 mi ENE 6.9 mph - N/A   Overcast
8:00 AM 21.2 °F 11.7 °F 17.6 °F 86% 30.08 in 10.0 mi ENE 8.1 mph - N/A   Overcast
8:53 AM 23.0 °F 13.9 °F 17.1 °F 78% 30.21 in 10.0 mi NE 8.1 mph - N/A   Overcast
9:41 AM 23.0 °F 13.9 °F 17.6 °F 80% 30.08 in 2.0 mi NE 8.1 mph - 0.00 in Snow Light Snow
9:53 AM 23.0 °F 12.4 °F 18.0 °F 81% 30.21 in 2.5 mi ENE 10.4 mph - 0.00 in Snow Light Snow
10:05 AM 23.0 °F 11.7 °F 19.4 °F 86% 30.08 in 1.2 mi NE 11.5 mph - 0.00 in Snow Light Snow
10:53 AM 24.1 °F 13.1 °F 19.9 °F 84% 30.22 in 1.2 mi NE 11.5 mph - 0.01 in Snow Light Snow
11:03 AM 23.0 °F 12.4 °F 19.4 °F 86% 30.09 in 3.0 mi NE 10.4 mph - 0.00 in   Overcast
11:13 AM 24.8 °F 15.3 °F 19.4 °F 80% 30.09 in 1.8 mi NE 9.2 mph - 0.00 in Snow Light Snow
11:34 AM 23.0 °F 12.4 °F 19.4 °F 86% 30.09 in 0.8 mi NE 10.4 mph - 0.00 in Snow Light Snow
11:53 AM 24.1 °F 14.4 °F 19.0 °F 81% 30.23 in 0.8 mi NE 9.2 mph - 0.01 in Snow Light Snow
12:03 PM 24.8 °F 15.3 °F 19.4 °F 80% 30.09 in 1.0 mi NE 9.2 mph - 0.00 in Snow Light Snow
12:45 PM 24.8 °F 14.0 °F 19.4 °F 80% 30.07 in 2.0 mi NE 11.5 mph - 0.01 in Snow Light Snow
12:47 PM 24.8 °F 14.0 °F 19.4 °F 80% 30.07 in 1.8 mi NNE 11.5 mph - 0.01 in Snow Light Snow
12:53 PM 25.0 °F 14.2 °F 19.9 °F 81% 30.21 in 1.5 mi NNE 11.5 mph - 0.01 in Snow Light Snow
12:58 PM 24.8 °F 12.9 °F 19.4 °F 80% 30.07 in 1.8 mi North 13.8 mph - 0.00 in Snow Light Snow
1:10 PM 24.8 °F 12.4 °F 21.2 °F 86% 30.06 in 0.8 mi NNE 15.0 mph - 0.01 in Snow Light Snow
1:35 PM 24.8 °F 12.9 °F 21.2 °F 86% 30.06 in 1.0 mi NNE 13.8 mph - 0.02 in Snow Light Snow
1:48 PM 26.6 °F 16.2 °F 19.4 °F 74% 30.07 in 2.0 mi North 11.5 mph - 0.02 in Snow Light Snow
1:53 PM 25.0 °F 14.8 °F 19.9 °F 81% 30.21 in 1.8 mi NNE 10.4 mph - 0.02 in Snow Light Snow
2:01 PM 24.8 °F 13.4 °F 21.2 °F 86% 30.07 in 2.5 mi NNE 12.7 mph - 0.00 in Snow Light Snow
2:09 PM 24.8 °F 13.4 °F 19.4 °F 80% 30.07 in 1.8 mi NE 12.7 mph - 0.00 in Snow Light Snow
2:11 PM 24.8 °F 13.4 °F 19.4 °F 80% 30.07 in 2.0 mi NNE 12.7 mph - 0.00 in Snow Light Snow
2:19 PM 24.8 °F 12.4 °F 19.4 °F 80% 30.07 in 2.0 mi NNE 15.0 mph - 0.00 in Snow Light Snow
2:53 PM 25.0 °F 13.1 °F 19.9 °F 81% 30.22 in 2.5 mi NNE 13.8 mph - 0.00 in Snow Light Snow
3:11 PM 24.8 °F 12.9 °F 21.2 °F 86% 30.08 in 1.0 mi NNE 13.8 mph - 0.00 in Snow Light Snow
3:35 PM 24.8 °F 15.3 °F 19.4 °F 80% 30.08 in 0.8 mi NNE 9.2 mph - 0.01 in Snow Light Snow
3:48 PM 24.8 °F 14.6 °F 21.2 °F 86% 30.10 in 0.5 mi North 10.4 mph - 0.02 in Fog , Snow Light Snow
3:49 PM 24.1 °F 13.1 °F 21.0 °F 88% 30.24 in 0.5 mi North 11.5 mph - 0.02 in Fog , Snow Light Snow
4:06 PM 23.0 °F 10.6 °F 21.2 °F 93% 30.09 in 0.8 mi North 13.8 mph - 0.01 in Snow Light Snow
4:26 PM 24.8 °F 14.6 °F 21.2 °F 86% 30.10 in 1.0 mi NNE 10.4 mph - 0.02 in Snow Light Snow
4:42 PM 24.8 °F 14.6 °F 21.2 °F 86% 30.09 in 0.8 mi NNE 10.4 mph - 0.02 in Snow Light Snow
4:49 PM 24.8 °F 15.3 °F 21.2 °F 86% 30.10 in 0.8 mi NNE 9.2 mph - 0.03 in Snow Light Snow
4:53 PM 24.1 °F 13.7 °F 21.9 °F 91% 30.24 in 0.8 mi NNE 10.4 mph - 0.03 in Snow Light Snow
5:02 PM 24.8 °F 16.1 °F 21.2 °F 86% 30.10 in 0.5 mi NE 8.1 mph - 0.00 in Fog , Snow Light Snow
5:18 PM 23.0 °F 11.7 °F 21.2 °F 93% 30.10 in 0.8 mi NE 11.5 mph - 0.01 in Snow Light Snow
5:30 PM 23.0 °F 11.7 °F 19.4 °F 86% 30.11 in 0.8 mi NE 11.5 mph - 0.02 in Snow Light Snow
5:35 PM 23.0 °F 13.1 °F 19.4 °F 86% 30.12 in 1.0 mi NE 9.2 mph - 0.02 in Snow Light Snow
5:46 PM 23.0 °F 14.7 °F 21.2 °F 93% 30.12 in 0.8 mi NNE 6.9 mph - 0.02 in Snow Light Snow
5:53 PM 23.0 °F 14.7 °F 21.0 °F 92% 30.27 in 0.8 mi NNE 6.9 mph - 0.02 in Snow Light Snow
6:05 PM 23.0 °F 13.1 °F 21.2 °F 93% 30.12 in 0.5 mi NE 9.2 mph - 0.01 in Fog , Snow Light Snow
6:19 PM 23.0 °F 12.4 °F 19.4 °F 86% 30.12 in 0.8 mi NE 10.4 mph - 0.02 in Snow Light Snow
6:33 PM 21.2 °F 10.9 °F 19.4 °F 93% 30.12 in 1.0 mi NNE 9.2 mph - 0.02 in Snow Light Snow
6:53 PM 21.9 °F 11.7 °F 19.9 °F 92% 30.28 in 1.5 mi NNE 9.2 mph - 0.02 in Snow Light Snow
7:15 PM 21.2 °F 11.7 °F 19.4 °F 93% 30.12 in 2.0 mi North 8.1 mph - 0.00 in Snow Light Snow
7:29 PM 21.2 °F 11.7 °F 19.4 °F 93% 30.14 in 2.5 mi North 8.1 mph - 0.01 in   Overcast
7:53 PM 21.9 °F 13.4 °F 19.9 °F 92% 30.28 in 2.0 mi NNE 6.9 mph - 0.01 in Snow Light Snow
8:05 PM 21.2 °F 12.6 °F 19.4 °F 93% 30.15 in 3.0 mi NNE 6.9 mph - 0.00 in Snow Light Snow
8:53 PM 21.9 °F 14.5 °F 19.9 °F 92% 30.30 in 3.0 mi North 5.8 mph - 0.00 in Snow Light Snow
9:04 PM 21.2 °F 13.6 °F 19.4 °F 93% 30.16 in 5.0 mi North 5.8 mph - N/A   Overcast
9:14 PM 21.2 °F 12.6 °F 19.4 °F 93% 30.16 in 4.0 mi NNE 6.9 mph - N/A   Overcast
9:22 PM 21.2 °F 11.7 °F 19.4 °F 93% 30.17 in 4.0 mi North 8.1 mph - N/A   Overcast
9:53 PM 21.0 °F 12.4 °F 19.0 °F 92% 30.32 in 8.0 mi North 6.9 mph - N/A   Overcast
10:25 PM 21.2 °F 11.7 °F 19.4 °F 93% 30.18 in 9.0 mi North 8.1 mph - N/A   Overcast
10:53 PM 19.9 °F 12.1 °F 19.0 °F 96% 30.33 in 6.0 mi North 5.8 mph - 0.00 in Snow Light Snow
11:18 PM 19.4 °F 10.4 °F 19.4 °F 100% 30.17 in 4.0 mi North 6.9 mph - 0.00 in Snow Light Snow
11:53 PM 21.0 °F 12.4 °F 19.0 °F 92% 30.32 in 5.0 mi North 6.9 mph - 0.01 in Snow Light Snow